Weather History for Budapest Ferihegy, Hungary

Change the Weather History Date:

Monday, May 6, 2013

  Actual Average Record
Temperature  
Mean Temperature 66 °F -  
Max Temperature 73 °F 71 °F 87 °F (2003)
Min Temperature 60 °F 48 °F 30 °F (2011)
Cooling Degree Days 2    
Growing Degree Days 16 (Base 50)    
Moisture  
Dew Point 55 °F    
Average Humidity 69    
Maximum Humidity 100    
Minimum Humidity 49    
Precipitation  
Precipitation 0.00 in - - ()
Sea Level Pressure  
Sea Level Pressure 30.10 in    
Wind  
Wind Speed 7 mph ()    
Max Wind Speed 14 mph    
Max Gust Speed -    
Visibility 6.1 miles    
Events Rain , Thunderstorm    
Averages and records for this station are not official NWS values.
T = Trace of Precipitation, MM = Missing Value Source: Averaged Metar Reports

Daily Weather History Graph

Daily Weather History Graph

Search for Another Location

Airport:

Trip Planner

Search our weather history database for the weather conditions in past years. The results will help you decide how hot, cold, wet, or windy it might be!

Date:

Astronomy

May. 06, 2013 Rise Set
Actual Time 5:18 AM CEST 8:01 PM CEST
Civil Twilight 4:43 AM CEST 8:36 PM CEST
Nautical Twilight 3:59 AM CEST 9:21 PM CEST
Astronomical Twilight 3:07 AM CEST 10:13 PM CEST
Moon 3:25 AM CEST (5/6) 4:30 PM CEST (5/6)
Length of Visible Light 15h 53m
Length of Day
14h 42m
Waning Crescent, 13% of the Moon is Illuminated
May 6
Waning Crescent
May 10
New
May 18
First Quarter
May 25
Full
May 31
Last Quarter

Hourly Weather History & Observations

Time (CEST) Temp. Dew Point Humidity Pressure Visibility Wind Dir Wind Speed Gust Speed Precip Events Conditions
12:00 AM 66.2 °F 55.4 °F 68% 30.15 in - Variable 1.2 mph - N/A   Clear
12:30 AM 64.4 °F 55.4 °F 73% 30.12 in - North 6.9 mph - N/A   Clear
1:00 AM 66.2 °F 55.4 °F 68% 30.12 in - NNE 5.8 mph - N/A   Clear
1:30 AM 66.2 °F 55.4 °F 68% 30.12 in - Variable 3.5 mph - N/A   Clear
2:00 AM 64.4 °F 53.6 °F 68% 30.12 in - ENE 6.9 mph - N/A   Clear
2:30 AM 64.4 °F 51.8 °F 64% 30.12 in - NE 10.4 mph - N/A   Clear
3:00 AM 64.4 °F 50.0 °F 59% 30.12 in - ENE 10.4 mph - N/A   Clear
3:30 AM 62.6 °F 50.0 °F 63% 30.15 in - East 9.2 mph - N/A   Clear
4:00 AM 60.8 °F 50.0 °F 68% 30.15 in - East 6.9 mph - N/A   Clear
4:30 AM 62.6 °F 48.2 °F 59% 30.12 in - NE 8.1 mph - N/A   Clear
5:00 AM 62.6 °F 48.2 °F 59% 30.09 in - NE 8.1 mph - N/A   Clear
5:30 AM 62.6 °F 48.2 °F 59% 30.09 in - East 10.4 mph - N/A   Clear
6:00 AM 62.6 °F 48.2 °F 59% 30.09 in - ENE 9.2 mph - N/A   Clear
6:30 AM 62.6 °F 48.2 °F 59% 30.12 in - East 9.2 mph - N/A   Clear
7:00 AM 64.4 °F 46.4 °F 52% 30.12 in - ENE 9.2 mph - N/A   Clear
7:30 AM 64.4 °F 46.4 °F 52% 30.12 in - ENE 9.2 mph - N/A   Clear
8:00 AM 64.4 °F 46.4 °F 52% 30.12 in - ENE 13.8 mph - N/A   Clear
8:30 AM 64.4 °F 46.4 °F 52% 30.12 in - East 10.4 mph - N/A   Clear
9:00 AM 68.0 °F 48.2 °F 49% 30.12 in - East 12.7 mph - N/A   Clear
9:30 AM 68.0 °F 50.0 °F 52% 30.12 in - ENE 11.5 mph - N/A   Clear
10:00 AM 66.2 °F 48.2 °F 52% 30.12 in 6.2 mi East 11.5 mph - N/A   Mostly Cloudy
10:30 AM 68.0 °F 50.0 °F 52% 30.12 in 6.2 mi East 9.2 mph - N/A   Mostly Cloudy
11:00 AM 69.8 °F 51.8 °F 53% 30.12 in - East 9.2 mph - N/A   Clear
11:30 AM 73.4 °F 53.6 °F 50% 30.12 in - East 9.2 mph - N/A   Clear
12:00 PM 71.6 °F 53.6 °F 53% 30.12 in - East 10.4 mph - N/A   Clear
12:30 PM 73.4 °F 53.6 °F 50% 30.12 in - East 9.2 mph - N/A   Clear
1:00 PM 73.4 °F 53.6 °F 50% 30.12 in - East 10.4 mph - N/A   Clear
1:30 PM 73.4 °F 53.6 °F 50% 30.09 in 6.2 mi East 10.4 mph - N/A   Scattered Clouds
2:00 PM 73.4 °F 55.4 °F 53% 30.09 in 6.2 mi East 9.2 mph - N/A   Mostly Cloudy
2:30 PM 69.8 °F 57.2 °F 64% 30.09 in 6.2 mi ENE 8.1 mph - N/A Rain , Thunderstorm Light Thunderstorms and Rain
3:00 PM 62.6 °F 60.8 °F 94% 30.12 in 5.0 mi SSW 10.4 mph - N/A Rain , Thunderstorm Light Thunderstorms and Rain
3:30 PM 64.4 °F 64.4 °F 100% 30.09 in 6.2 mi North 8.1 mph - N/A   Scattered Clouds
4:00 PM 64.4 °F 62.6 °F 94% 30.09 in 6.2 mi NE 6.9 mph - N/A   Mostly Cloudy
4:30 PM 66.2 °F 64.4 °F 94% 30.06 in - ENE 10.4 mph - N/A   Clear
5:00 PM 69.8 °F 64.4 °F 83% 30.06 in - ENE 9.2 mph - N/A   Clear
5:30 PM 68.0 °F 62.6 °F 83% 30.04 in - NE 12.7 mph - N/A   Clear
6:00 PM 68.0 °F 62.6 °F 83% 30.04 in - NE 8.1 mph - N/A   Clear
6:30 PM 66.2 °F 62.6 °F 88% 30.04 in - NE 10.4 mph - N/A   Clear
7:00 PM 66.2 °F 60.8 °F 83% 30.04 in - ENE 9.2 mph - N/A   Clear
7:30 PM 66.2 °F 62.6 °F 88% 30.04 in 6.2 mi ENE 9.2 mph - N/A Rain Light Rain Showers
8:00 PM 66.2 °F 60.8 °F 83% 30.06 in 6.2 mi ENE 8.1 mph - N/A Rain Light Rain Showers
8:30 PM 66.2 °F 59.0 °F 78% 30.06 in 6.2 mi ENE 4.6 mph - N/A Rain Light Rain Showers
9:00 PM 64.4 °F 59.0 °F 83% 30.06 in 6.2 mi Variable 3.5 mph - N/A Rain Light Rain
9:30 PM 64.4 °F 60.8 °F 88% 30.06 in 6.2 mi Variable 1.2 mph - N/A   Mostly Cloudy
10:00 PM 64.4 °F 60.8 °F 88% 30.06 in 6.2 mi ESE 4.6 mph - N/A Rain Light Rain Showers
10:30 PM 62.6 °F 60.8 °F 94% 30.06 in 6.2 mi East 5.8 mph - N/A   Scattered Clouds
11:00 PM 62.6 °F 60.8 °F 94% 30.06 in 6.2 mi East 9.2 mph - N/A   Mostly Cloudy
11:30 PM 64.4 °F 60.8 °F 88% 30.06 in 5.0 mi SE 13.8 mph - N/A Rain Rain Showers